Wind_Speed
3 3 3 4 4 4 3 3 3 4 4 4 4 4 4 4 4 4 4 4 4 4 4 4 4 3 4 5 4 4 4 5 5 5 5 5 5 4 4 4 3 3 3
4 4 4 4 4 4 4 4 4 4 4 4 4 4 5 5 5 5 5 5 5 5 5 5 5 5 5 6 5 5 5 5 6 6 6 6 6 6 5 5 5 5 4
5 5 4 5 5 5 4 4 4 5 5 5 5 5 6 6 6 6 6 6 5 5 6 6 6 7 6 7 7 6 6 7 7 8 8 7 7 7 6 6 6 6 5
4 5 5 5 5 5 5 4 5 5 5 5 6 6 6 6 7 6 6 6 6 6 6 6 6 7 7 8 8 8 7 8 8 9 9 9 9 9 8 8 7 7 7
4 5 5 5 5 5 5 5 5 5 6 6 6 6 6 7 7 7 6 6 6 6 7 7 7 8 8 9 9 9 8 8 9 9 9 9 9 9 9 9 9 9 8
5 5 6 5 5 5 5 5 6 6 6 6 7 6 6 7 7 7 7 7 7 7 8 8 8 8 9 10 10 10 9 9 9 9 10 10 10 10 10 10 10 10 10
5 5 6 5 5 5 5 6 6 6 6 6 6 7 7 7 7 8 8 8 8 8 9 9 10 10 10 10 11 11 10 9 9 9 10 10 10 10 11 11 11 11 11
5 6 6 5 5 5 6 6 6 6 6 6 6 6 7 7 7 8 8 8 8 8 9 9 10 10 11 10 9 10 10 10 10 9 9 10 11 11 11 11 11 12 12
6 6 6 6 6 6 6 6 6 6 6 6 6 7 7 7 8 9 9 8 8 9 10 9 10 10 10 10 9 9 9 10 10 10 10 11 11 11 11 12 12 12 12
7 6 6 6 6 6 6 6 6 6 7 7 6 6 7 7 8 8 9 8 8 9 9 10 11 10 9 9 10 9 10 10 10 11 11 11 11 12 12 12 12 12 12
7 6 6 6 6 6 7 7 7 7 7 7 7 7 7 8 8 8 8 8 8 8 9 9 10 9 9 9 9 10 10 11 10 10 11 11 12 13 13 13 13 13 13
7 7 7 6 6 6 6 7 7 7 7 7 6 7 7 8 8 8 9 9 9 9 9 9 10 10 10 10 10 10 10 11 11 11 11 11 12 12 13 13 13 13 13
6 6 6 6 6 6 7 7 7 8 7 7 7 7 8 8 9 9 10 9 9 9 9 9 10 10 10 10 10 11 10 10 11 12 12 11 11 11 12 12 12 11 11
6 6 6 6 6 7 7 8 8 8 7 7 7 8 8 9 9 9 10 9 9 9 9 9 9 9 9 9 9 10 11 11 11 12 12 11 11 11 11 12 12 12 12
6 6 6 6 7 7 7 8 8 8 8 7 7 8 8 8 7 8 9 9 9 9 8 8 8 9 9 9 9 9 10 11 12 12 12 11 11 12 12 12 12 12 12
7 7 7 7 7 8 7 7 8 8 8 9 8 8 8 8 7 7 7 8 8 8 8 8 8 8 9 9 10 9 10 11 11 12 11 11 11 11 11 11 12 12 12
7 7 7 7 8 8 8 8 8 8 9 9 8 8 8 8 8 7 7 7 7 8 8 8 8 9 9 9 10 10 10 10 10 11 11 11 11 11 11 11 11 11 12
7 7 7 7 8 8 8 9 9 9 9 8 8 8 8 8 7 7 6 7 7 7 7 8 8 8 9 9 9 9 10 10 10 11 11 11 11 11 11 11 11 12 12
7 7 7 7 7 8 8 9 9 9 8 8 8 8 7 7 6 6 6 6 7 7 7 7 7 7 8 8 8 9 9 10 10 11 11 10 11 11 11 11 12 12 12
8 7 7 7 7 8 8 8 8 8 8 8 8 7 7 7 6 6 6 6 6 7 7 7 7 7 7 8 8 9 9 10 10 11 11 11 11 11 11 11 12 12 12
8 8 7 7 8 8 8 8 8 8 8 8 7 7 7 7 6 6 6 6 6 6 7 7 7 7 7 8 8 8 9 10 10 11 11 11 11 12 12 12 12 11 12
8 7 7 7 7 7 7 8 8 8 7 7 7 7 6 6 6 6 7 7 7 6 6 7 7 7 7 8 8 9 9 9 9 10 10 11 12 12 12 12 12 11 12
8 7 7 6 7 7 7 7 7 7 7 6 6 6 6 6 6 6 6 6 6 6 6 6 6 7 7 8 8 9 9 9 9 9 10 11 11 11 11 11 12 12 11
7 7 6 7 7 7 7 7 7 7 6 6 6 6 6 6 5 6 6 6 6 6 6 6 6 7 8 8 8 8 8 9 9 9 10 10 10 11 11 11 11 12 12
7 7 7 7 7 7 7 7 7 7 6 6 5 5 5 5 5 5 5 6 6 5 5 6 6 7 8 8 8 8 8 9 9 8 8 9 10 11 11 11 11 12 12
8 7 7 7 7 7 7 7 7 7 6 6 6 6 6 5 5 5 5 5 5 5 6 6 7 7 8 8 8 9 8 8 8 7 7 8 9 9 10 11 11 11 11
Wind_Direction
315 310 311 308 315 317 323 319 315 315 312 305 293 292 289 289 293 300 305 299 292 286 279 266 254 246 252 248 241 236 233 232 233 226 218 215 215 218 222 224 232 227 224
308 299 301 301 303 307 313 318 313 315 311 300 290 284 281 282 290 296 295 289 285 282 281 269 261 257 253 251 249 241 240 239 237 232 229 229 229 231 232 235 241 240 241
310 300 299 305 303 301 303 310 313 306 302 291 287 286 280 280 286 288 289 283 280 281 279 264 259 260 257 258 256 255 250 243 238 238 237 236 237 237 241 243 244 245 248
318 310 309 309 314 311 301 302 302 297 293 290 285 281 279 277 281 284 284 282 281 279 274 264 257 257 258 257 258 259 257 249 245 243 244 243 243 245 246 247 248 250 250
322 314 308 308 309 306 304 303 299 293 289 285 283 279 277 275 277 282 276 273 271 272 274 268 262 256 257 257 257 255 255 253 247 244 243 244 246 249 251 251 252 253 253
325 318 314 311 306 299 297 297 299 295 292 288 286 283 278 275 273 277 270 269 270 274 276 273 268 266 265 264 259 252 250 250 246 246 248 248 250 250 252 254 254 254 253
323 320 318 316 305 298 300 299 299 298 295 292 289 286 280 277 276 280 278 273 273 274 275 276 274 269 268 269 259 249 249 249 250 249 250 250 251 249 251 254 256 254 255
314 311 314 314 307 301 299 299 298 301 300 295 289 285 284 282 282 282 281 274 271 270 269 271 272 272 272 266 257 247 246 248 250 252 254 253 252 250 253 256 257 257 257
312 306 309 312 311 305 300 298 298 298 301 299 293 287 284 282 279 278 278 281 277 272 270 265 267 270 270 264 257 253 254 251 251 253 258 258 252 253 255 257 259 259 259
308 304 307 312 310 305 302 298 298 294 297 299 297 290 285 283 282 283 280 282 280 275 268 266 267 267 266 260 252 254 254 254 256 255 257 260 256 254 254 255 258 261 263
306 306 306 310 310 305 301 300 300 298 295 297 297 296 292 287 285 286 281 278 277 273 271 271 267 265 263 258 252 252 254 254 256 258 261 262 260 257 255 255 256 259 263
302 302 304 306 308 307 304 303 303 304 301 298 299 299 298 293 286 278 279 278 274 271 271 270 265 263 263 260 256 253 254 258 261 261 263 264 263 259 259 257 257 259 261
296 298 301 306 307 306 305 305 307 304 304 300 299 299 297 294 288 281 279 279 274 271 268 265 263 262 262 261 259 257 257 260 261 262 260 262 262 258 256 257 257 259 260
300 300 302 303 304 304 305 305 307 306 303 300 298 299 301 297 289 283 281 280 275 269 266 263 262 262 262 265 266 263 260 261 262 263 262 261 257 256 256 255 257 260 263
303 302 301 299 297 300 301 302 305 305 302 300 299 300 302 301 290 287 282 281 279 275 274 268 264 262 263 265 265 267 270 267 263 262 260 259 261 260 256 257 258 259 262
304 301 300 300 300 302 303 303 303 305 303 303 302 300 299 298 298 294 285 279 278 275 271 264 260 261 264 263 263 266 270 271 266 260 257 256 259 259 261 262 263 263 262
305 301 302 299 298 300 301 301 302 303 302 302 299 297 295 293 293 289 287 285 286 280 272 267 265 265 268 267 265 266 268 267 266 264 259 257 257 260 265 268 266 267 268
307 304 301 298 298 300 299 301 303 304 302 299 298 294 292 291 289 284 284 288 287 282 274 271 271 271 271 270 269 269 268 267 269 266 265 263 261 262 265 267 267 268 272
310 307 303 303 300 301 303 301 302 304 301 299 298 295 292 287 286 286 281 280 284 283 278 275 274 275 274 272 274 274 271 269 268 266 268 268 262 264 265 268 268 268 271
311 310 308 305 305 304 306 306 306 306 304 299 298 294 292 289 285 285 283 281 281 282 280 275 274 276 277 278 278 275 275 275 269 267 268 270 264 264 265 269 271 270 269
310 308 307 305 308 308 307 307 310 311 305 298 296 295 291 290 287 286 285 290 287 285 284 281 276 276 278 279 280 278 281 278 271 269 270 266 263 264 265 267 270 271 269
314 310 308 308 309 310 308 309 312 312 307 296 293 296 295 292 289 293 286 287 285 283 283 280 275 277 278 282 283 281 282 279 275 271 269 267 264 265 262 263 268 269 271
313 310 306 305 306 312 311 311 314 313 307 295 292 293 294 296 292 294 297 297 290 278 276 279 278 278 281 286 285 283 283 282 279 273 270 269 266 266 262 262 267 269 272
308 308 304 304 305 309 315 317 318 316 308 297 296 294 294 297 296 296 293 299 297 287 282 281 278 278 282 285 289 291 285 284 280 277 271 268 269 269 267 267 269 271 273
301 301 301 303 304 309 310 313 313 310 306 298 293 289 292 298 298 301 299 304 304 291 284 284 281 285 288 286 288 289 289 289 287 284 274 273 271 270 269 268 271 274 273
294 296 298 301 302 302 304 307 307 304 301 297 292 288 292 298 302 303 302 302 301 296 285 286 286 286 290 285 282 284 283 287 286 284 283 280 276 274 272 271 272 272 272
Height
5870 5870 5869 5869 5868 5868 5868 5868 5868 5867 5867 5867 5867 5867 5866 5867 5867 5867 5867 5867 5868 5868 5868 5868 5869 5869 5869 5870 5870 5871 5871 5872 5873 5874 5875 5876 5877 5878 5879 5879 5880 5880 5881
5869 5869 5869 5868 5868 5868 5867 5867 5867 5867 5867 5866 5866 5866 5866 5866 5866 5866 5866 5866 5867 5867 5867 5867 5868 5868 5869 5869 5870 5870 5871 5872 5872 5873 5874 5875 5876 5877 5878 5878 5879 5880 5880
5868 5868 5868 5868 5867 5867 5867 5866 5866 5866 5866 5865 5865 5865 5865 5865 5865 5865 5865 5865 5866 5866 5866 5866 5867 5867 5867 5868 5869 5870 5870 5871 5872 5872 5873 5874 5875 5876 5877 5877 5878 5879 5879
5868 5867 5867 5867 5866 5866 5866 5865 5865 5865 5865 5865 5864 5864 5864 5864 5864 5864 5864 5864 5865 5865 5865 5865 5866 5866 5866 5866 5867 5868 5869 5870 5870 5871 5872 5873 5874 5874 5875 5876 5877 5877 5878
5867 5867 5866 5866 5865 5865 5865 5864 5864 5864 5864 5863 5863 5863 5863 5863 5863 5863 5863 5863 5863 5863 5863 5864 5864 5864 5865 5865 5865 5866 5867 5868 5868 5869 5870 5871 5872 5873 5873 5874 5875 5876 5876
5866 5866 5865 5865 5864 5864 5864 5863 5863 5863 5862 5862 5862 5862 5861 5861 5861 5861 5861 5862 5862 5862 5862 5862 5862 5862 5862 5862 5862 5863 5865 5865 5867 5867 5868 5869 5870 5871 5871 5872 5873 5873 5874
5866 5865 5864 5864 5863 5863 5863 5862 5862 5861 5861 5861 5860 5860 5860 5860 5860 5860 5860 5860 5860 5861 5861 5860 5860 5861 5860 5859 5858 5860 5862 5864 5865 5865 5866 5867 5868 5868 5869 5870 5871 5871 5871
5865 5864 5863 5863 5862 5862 5861 5861 5861 5860 5860 5859 5859 5859 5859 5858 5858 5858 5858 5858 5859 5859 5859 5859 5858 5859 5858 5856 5856 5858 5860 5862 5863 5863 5864 5865 5866 5866 5867 5868 5868 5869 5869
5864 5863 5862 5862 5861 5860 5860 5860 5859 5859 5858 5858 5858 5857 5857 5857 5857 5857 5857 5857 5857 5857 5857 5857 5857 5857 5856 5856 5857 5858 5859 5860 5861 5862 5862 5863 5863 5864 5864 5865 5866 5866 5866
5863 5862 5861 5860 5860 5859 5859 5858 5858 5857 5857 5857 5856 5856 5855 5855 5855 5855 5855 5855 5855 5855 5855 5855 5855 5855 5855 5855 5856 5857 5858 5858 5859 5860 5860 5861 5861 5861 5862 5863 5863 5863 5864
5861 5861 5860 5859 5859 5858 5857 5857 5856 5856 5855 5855 5855 5854 5854 5854 5854 5853 5853 5853 5853 5853 5853 5853 5853 5853 5853 5854 5854 5855 5856 5856 5857 5858 5858 5858 5858 5859 5859 5860 5860 5861 5861
5860 5859 5859 5858 5857 5857 5856 5856 5855 5854 5854 5854 5853 5853 5853 5852 5852 5852 5851 5851 5851 5851 5851 5851 5851 5851 5852 5852 5852 5853 5854 5854 5855 5855 5856 5856 5856 5856 5857 5857 5857 5858 5858
5859 5858 5857 5857 5856 5855 5855 5854 5854 5853 5852 5852 5852 5851 5851 5851 5850 5850 5850 5849 5849 5849 5849 5849 5849 5849 5850 5850 5850 5851 5852 5852 5853 5853 5853 5853 5853 5854 5854 5855 5855 5855 5856
5857 5857 5856 5855 5855 5854 5854 5853 5852 5852 5851 5850 5850 5850 5849 5849 5848 5848 5848 5847 5847 5847 5847 5847 5847 5847 5848 5848 5848 5849 5849 5850 5850 5850 5850 5851 5851 5851 5852 5852 5852 5853 5853
5856 5855 5855 5854 5853 5853 5852 5852 5851 5850 5849 5849 5848 5848 5847 5847 5846 5846 5846 5845 5845 5845 5845 5845 5845 5845 5846 5846 5846 5847 5847 5847 5847 5848 5848 5848 5848 5849 5849 5850 5850 5850 5850
5855 5854 5853 5853 5852 5851 5850 5850 5849 5849 5848 5847 5847 5846 5845 5845 5845 5844 5844 5843 5843 5843 5843 5843 5843 5843 5844 5844 5844 5844 5844 5845 5845 5845 5845 5846 5846 5846 5847 5847 5847 5847 5847
5853 5852 5852 5851 5850 5850 5849 5848 5848 5847 5846 5845 5845 5844 5844 5843 5843 5842 5842 5842 5841 5841 5841 5841 5841 5841 5842 5842 5842 5842 5842 5842 5842 5842 5843 5843 5843 5844 5844 5844 5844 5845 5845
5852 5851 5850 5849 5849 5848 5847 5846 5846 5845 5844 5843 5843 5842 5842 5841 5841 5840 5840 5840 5839 5839 5839 5839 5839 5839 5840 5840 5840 5840 5839 5840 5840 5840 5840 5840 5841 5841 5841 5841 5842 5842 5842
5850 5849 5849 5848 5847 5846 5846 5845 5844 5843 5842 5842 5841 5840 5840 5839 5839 5839 5838 5838 5838 5838 5838 5838 5838 5838 5837 5837 5838 5837 5837 5837 5837 5837 5837 5837 5838 5838 5838 5839 5839 5839 5839
5848 5848 5847 5846 5846 5845 5844 5843 5842 5841 5840 5840 5839 5839 5838 5838 5837 5837 5837 5837 5836 5836 5836 5836 5836 5836 5836 5836 5836 5835 5835 5835 5835 5835 5835 5835 5835 5835 5835 5836 5836 5836 5837
5847 5846 5845 5845 5844 5843 5842 5842 5841 5840 5839 5838 5837 5837 5837 5836 5836 5836 5835 5835 5835 5834 5834 5834 5834 5834 5834 5834 5834 5833 5833 5832 5832 5832 5831 5832 5832 5832 5833 5833 5833 5834 5834
5845 5844 5844 5843 5842 5842 5841 5840 5839 5838 5837 5837 5836 5835 5835 5835 5834 5834 5834 5834 5833 5833 5832 5832 5832 5832 5832 5832 5832 5831 5831 5831 5829 5829 5829 5829 5829 5829 5830 5830 5830 5831 5831
5844 5843 5842 5841 5841 5840 5839 5838 5837 5836 5836 5835 5835 5834 5834 5833 5833 5833 5832 5832 5832 5831 5831 5831 5830 5830 5830 5830 5829 5829 5828 5828 5827 5827 5826 5826 5826 5826 5827 5827 5828 5828 5828
5842 5842 5841 5840 5839 5838 5837 5837 5836 5835 5834 5834 5833 5833 5832 5832 5832 5831 5831 5831 5830 5830 5829 5829 5829 5828 5828 5828 5827 5827 5826 5826 5825 5824 5824 5824 5824 5824 5824 5825 5825 5825 5825
5841 5840 5839 5838 5838 5837 5836 5835 5834 5834 5833 5832 5832 5831 5831 5831 5831 5830 5830 5829 5829 5828 5828 5827 5827 5827 5826 5826 5825 5825 5824 5823 5823 5822 5822 5822 5822 5822 5821 5822 5822 5822 5822
5839 5838 5838 5837 5836 5835 5834 5834 5833 5832 5831 5831 5831 5830 5830 5830 5829 5829 5828 5828 5828 5827 5827 5826 5825 5825 5824 5824 5823 5823 5822 5821 5821 5820 5820 5820 5819 5820 5819 5819 5819 5819 5819